World > North America > United States > Texas

Hourly Corley, TX Regional Weather

Feedback E-mail the Weather

Quick WX

Corley, TX Weather Maps

°F °C°F °C
Corley Weather Map
UTC Time: 7/2/2022, 05:31
Your Time:

Corley, TX Regional Weather

Expires:202207020600;;533073
ASUS44 KFWD 020515
RWRTX 
NORTH TEXAS HOURLY WEATHER ROUNDUP
NATIONAL WEATHER SERVICE FORT WORTH TX
1200 AM CDT SAT JUL 02 2022

NOTE: "FAIR" INDICATES FEW OR NO CLOUDS BELOW 12,000 FEET WITH NO
SIGNIFICANT WEATHER AND/OR OBSTRUCTIONS TO VISIBILITY.


TXZ095>097-106>112-122>126-135>138-148>153-164>167-020600-
EAST TEXAS
  
CITY           SKY/WX    TMP DP  RH WIND       PRES   REMARKS
PARIS          FAIR      79  71  76 SE9       29.96R                  
SULPHUR SPRNGS FAIR      81  70  70 CALM      29.97R                  
MOUNT PLEASANT FAIR      76  71  84 SE6       29.95S                  
GILMER         FAIR      77  68  74 E3        29.96S                  
MINEOLA        FAIR      79  72  78 SE5       29.95R                  
TYLER          FAIR      79  71  76 SE8       29.94S                  
LONGVIEW       FAIR      77  72  84 SE7       29.95S                  
MARSHALL       FAIR      73  69  89 CALM      29.98F                  
ATHENS         FAIR      79  70  73 SE6       29.93S                  
PALESTINE      FAIR      77  73  88 SE5       29.94S                  
JACKSONVILLE   FAIR      75  72  89 S3        29.99R                  
HENDERSON      MOCLDY    80  69  70 SE3       29.97S                  
NACOGDOCHES    MOCLDY    76  75  97 SE6       29.97S                  
LUFKIN         CLOUDY    77  74  90 E5        29.96S                  
$$

SUPPLEMENTAL OBSERVATIONS (NWS FORT WORTH AREA)
  
CITY           SKY/WX    TMP DP  RH WIND       PRES   REMARKS
CADDO GRASSLND   N/A     81  68  65 SE2         N/A                   
LBJ GRASSLAND    N/A     82  66  57 E3          N/A                   
POSSUM KINGDOM   N/A     82  61  47 E6          N/A                   
GRANBURY         N/A     86  68  54 SE9         N/A                   
COMANCHE         N/A     82  64  54 SE9         N/A                   
MCGREGOR         N/A     82  70  65 SE6         N/A                   
TEMPLE           N/A     82  70  65 E7          N/A                   
LAKE LIMESTONE   N/A     77  66  69 SE5         N/A                   
PALESTINE        N/A     75  70  83 SE2         N/A                   
$$

SUPPLEMENTAL OBSERVATIONS (NWS NORMAN AREA)
  
CITY           SKY/WX    TMP DP  RH WIND       PRES   REMARKS
GOODLETT         N/A     86  61  43 SE15      29.93R                  
ODELL            N/A     84  64  51 SE10      29.94R                  
CROWELL          N/A     85  60  43 SE9       29.94R                  
KNOX CITY        N/A     86  59  40 SE14      29.92S                  
SEYMOUR          N/A     83  63  50 SE12      29.93R                  
MILLERS CREEK    N/A     82  61  47 SE9         N/A                   
$$

SUPPLEMENTAL OBSERVATIONS (NWS SAN ANGELO AREA)
  
CITY           SKY/WX    TMP DP  RH WIND       PRES   REMARKS
WEINERT          N/A     85  60  43 SE13      29.94R                  
HASKELL          N/A     83  60  45 SE12      29.93S                  
THROCKMORTON     N/A     82  62  50 SE5       29.94S                  
STAMFORD         N/A     85  61  43 SE12      29.95R                  
CLYDE            N/A     83  63  51 SE10      30.00R                  
HAMBY            N/A     84  61  45 SE7         N/A                   
$$

SUPPLEMENTAL OBSERVATIONS (NWS SHREVEPORT AREA)
  
CITY           SKY/WX    TMP DP  RH WIND       PRES   REMARKS
TEXARKANA        N/A     75  72  88 CALM        N/A                   
LINDEN           N/A     75  70  83 SE2         N/A                   
N SABINE NF      N/A     75  70  83 MISG        N/A                   
$$

SUPPLEMENTAL OBSERVATIONS ARE A COLLECTION OF AUTOMATED INSTRUMENTS
THAT ARE MAINTAINED BY A VARIETY OF FEDERAL AND STATE AGENCIES. 
CERTAIN ELEMENTS...SUCH AS HUMIDITY VALUES AND SUSTAINED WIND 
SPEEDS...MAY BE APPROXIMATED.

  

SKY/WX - Weather  TMP - Temperature  DP - Dew Point  RH - Humidity
WIND - Wind Direction/Speed PRES - Barometric Pressure VSB - Visibility
WCI - Wind Chill Index E13G22 Wind - East Wind 13 mph/Gusts of 22 mph

Trending Headlines

Corley Radar Loop



Corley Quick Facts


National Two Day Weather Forecast


E-mail the Corley Weather Forecast

Voice your opinion or tell us about page issues...